Regional Weather Roundup
Issued by NWS Columbia, SC

Home | Current Version | Previous Version | Text Only | Print | Product List | Glossary On
Versions: 1 2 3 4 5 6 7 8 9 10 11 12 13 14 15 16 17 18 19 20 21 22 23 24 25 26 27 28 29 30 31 32 33 34 35 36 37 38 39 40 41 42 43 44 45 46 47 48 49 50
195
ASUS42 KCAE 250910
RWRCAE
REGIONAL WEATHER ROUNDUP
NATIONAL WEATHER SERVICE COLUMBIA SC
500 AM EDT THU MAY 25 2017

NOTE: "FAIR" INDICATES FEW OR NO CLOUDS BELOW 12,000 FEET WITH NO
SIGNIFICANT WEATHER AND/OR OBSTRUCTIONS TO VISIBILITY.

NOT ALL STATIONS ARE QUALITY CONTROLLED BY THE NATIONAL
WEATHER SERVICE. USE DATA WITH CAUTION...ESPECIALLY
DEWPOINT OBSERVATIONS.

SCZ001>056-GAZ040-063>065-077-251000-
...UPSTATE SOUTH CAROLINA...

CITY           SKY/WX    TMP DP  RH WIND       PRES   REMARKS
ANDERSON       CLEAR     57  52  83 W8        29.55R
CLEMSON        CLEAR     56  50  80 W14       29.54R
GREENVILLE     CLOUDY    58  55  90 W6        29.52S
GREENWOOD      CLEAR     56  53  90 SW9       29.56R
GREER          CLOUDY    59  57  93 SW8       29.50S
ROCK HILL      PTCLDY    56  55  97 SW7       29.51R


...CENTRAL SOUTH CAROLINA...

CITY           SKY/WX    TMP DP  RH WIND       PRES   REMARKS
COLUMBIA APT   CLEAR     62  59  90 SW8       29.56R
COLUMBIA OWENS CLEAR     62  60  93 SW3       29.57R
MCENTIRE ANGB  CLEAR     60  60  98 CALM      29.57R
ORANGEBURG     CLOUDY    64  63  96 SW8       29.59R
SUMTER SHAW    CLEAR     62  60  93 S7        29.54R


...EASTERN AND COASTAL SOUTH CAROLINA...

CITY           SKY/WX    TMP DP  RH WIND       PRES   REMARKS
MYRTLE BEACH   PTCLDY    69  66  90 SW6       29.58R
N MYRTLE BCH   CLOUDY    71  66  84 SW9       29.55S
FLORENCE       CLEAR     65  64  97 SW9       29.55R
DARLINGTON     CLEAR     65  63  93 S9        29.54R
CHARLESTON APT PTCLDY    67  63  87 SW9       29.60R
BEAUFORT       PTCLDY    67  63  87 SW16      29.63R


...EASTERN GEORGIA...

CITY           SKY/WX    TMP DP  RH WIND       PRES   REMARKS
AUGUSTA BUSH F PTCLDY    62  58  86 SW8       29.60R
AUGUSTA DANIEL CLEAR     61  56  83 W6        29.60R
THOMSON        PTCLDY    58  55  90 NW7       29.65R
WASHINGTON     FAIR      61  61 100 W7        29.59R
CLAXTON        FAIR      62  62 100 SW5       29.66R
SYLVANIA       SUNNY     63  62  97 W6        29.65R
STATESBORO     CLEAR     63  63 100 W3        29.65R
SAVANNAH       CLEAR     65  59  81 W9        29.66R


...SOUTHERN NORTH CAROLINA...

CITY           SKY/WX    TMP DP  RH WIND       PRES   REMARKS
CHARLOTTE      CLOUDY    60  55  83 SW8       29.50S
MONROE         CLEAR     59  55  87 SW9       29.50R
ROCKINGHAM     SUNNY     63  63 100 S5        29.51S
RUTHERFORDTON  CLOUDY    59  59 100 CALM      29.50S
ASHEVILLE      CLEAR     53  48  83 N10       29.55R

$$




USA.gov is the U.S. government's official web portal to all federal, state and local government web resources and services.